Location: Eindhoven
(51.4416°N, 5.4697°E)
Time: 03:34:41
(UTC+01:00)

deb Explorer IX - Pass Details

Date: 20 November 2019
Orbit: 546 x 1104 km, 38.8° (Epoch: 12 December)

Event Time Altitude Azimuth Distance (km) Brightness Sun altitude
Rises 01:03:57 0° 213° (SSW) 3,752 - -57.2°
Reaches altitude 10° 01:07:56 10° 193° (SSW) 2,703 - -57.0°
Maximum altitude 01:11:29 15° 159° (SSE) 2,233 - -56.8°
Drops below altitude 10° 01:14:49 10° 125° (SE) 2,490 - -56.6°
Sets 01:18:14 0° 103° (ESE) 3,303 - -56.4°
